Alice Springs, Australia

8:07 AM ACST on October 14, 2019 (GMT +0930)
Alice Springs

Weather History for YBAS - August, 2019

Change the Weather History Date:

Sunday, August 4, 2019

  Actual Average Record
Temperature  
Mean Temperature 54 °F -  
Max Temperature 71 °F 73 °F 80 °F (2001)
Min Temperature 37 °F 44 °F 27 °F (2016)
Degree Days  
Heating Degree Days 11    
Growing Degree Days 4 (Base 50)    
Moisture  
Dew Point 30 °F    
Average Humidity 37    
Maximum Humidity 65    
Minimum Humidity 14    
Precipitation  
Precipitation 0.00 in 0.02 in - ()
Sea Level Pressure  
Sea Level Pressure 30.28 in    
Wind  
Wind Speed 7 mph ()    
Max Wind Speed 18 mph    
Max Gust Speed -    
Visibility 6.2 miles    
Events      
Averages and records for this station are not official NWS values.
T = Trace of Precipitation, MM = Missing Value Source: Averaged Metar Reports

Daily Weather History Graph

Daily Weather History Graph

Search for Another Location

Airport or City:

Astronomy

Aug. 04, 2019 Rise Set
Actual Time 7:08 AM ACST 6:12 PM ACST
Civil Twilight 6:44 AM ACST 6:36 PM ACST
Nautical Twilight 6:17 AM ACST 7:03 PM ACST
Astronomical Twilight 5:50 AM ACST 7:30 PM ACST
Moon 9:36 AM ACST (8/4) 9:38 PM ACST (8/4)
Length of Visible Light 11h 51m
Length of Day
11h 04m
Waxing Crescent, 13% of the Moon is Illuminated
Aug 4
Waxing Crescent
Aug 8
First Quarter
Aug 15
Full
Aug 24
Last Quarter
Aug 30
New

Hourly Weather History & Observations

Time (ACST) Temp. Windchill Dew Point Humidity Pressure Visibility Wind Dir Wind Speed Gust Speed Precip Events Conditions
12:00 AM 44 °F - 26 °F 35% 30.35 in - West 5.8 mph - -   Clear
12:00 AM 44.6 °F 41.4 °F 24.8 °F 46% 30.36 in 6.2 mi West 5.8 mph - N/A   Unknown
12:30 AM 44 °F - 26 °F 37% 30.35 in - West 5.8 mph - -  
12:30 AM 44.6 °F 41.4 °F 26.6 °F 49% 30.36 in 6.2 mi West 5.8 mph - N/A   Unknown
1:00 AM 44.6 °F 40.7 °F 26.6 °F 49% 30.36 in 6.2 mi NW 6.9 mph - N/A   Unknown
1:30 AM 42.8 °F 41.1 °F 26.6 °F 53% 30.36 in 6.2 mi NNW 3.5 mph - N/A   Scattered Clouds
2:00 AM 42.8 °F 40.1 °F 24.8 °F 49% 30.36 in 6.2 mi West 4.6 mph - N/A   Mostly Cloudy
2:30 AM 42 °F - 26 °F 40% 30.34 in - West 4.6 mph - -  
2:30 AM 42.8 °F 40.1 °F 26.6 °F 53% 30.33 in 6.2 mi West 4.6 mph - N/A   Mostly Cloudy
3:00 AM 43 °F - 27 °F 41% 30.33 in - NW 5.8 mph - -   Clear
3:00 AM 42.8 °F 39.3 °F 26.6 °F 53% 30.33 in 6.2 mi NW 5.8 mph - N/A   Scattered Clouds
3:30 AM 42 °F - 27 °F 43% 30.32 in - WNW 5.8 mph - -  
3:30 AM 42.8 °F 39.3 °F 26.6 °F 53% 30.33 in 6.2 mi WNW 5.8 mph - N/A   Unknown
4:00 AM 42.8 °F 39.3 °F 28.4 °F 57% 30.33 in 6.2 mi WNW 5.8 mph - N/A   Unknown
4:30 AM 39.2 °F 35.0 °F 24.8 °F 56% 30.33 in 6.2 mi NW 5.8 mph - N/A   Unknown
5:00 AM 42.8 °F 40.1 °F 28.4 °F 57% 30.33 in 6.2 mi WNW 4.6 mph - N/A   Unknown
5:30 AM 39 °F - 26 °F 46% 30.33 in - WSW 5.8 mph - -  
5:30 AM 39.2 °F 35.0 °F 24.8 °F 56% 30.33 in 6.2 mi WSW 5.8 mph - N/A   Unknown
6:00 AM 40 °F - 28 °F 51% 30.34 in - NW 6.9 mph - -   Clear
6:00 AM 39.2 °F 34.2 °F 28.4 °F 65% 30.33 in 6.2 mi NW 6.9 mph - N/A   Unknown
6:30 AM 41.0 °F 38.0 °F 28.4 °F 61% 30.33 in 6.2 mi NNW 4.6 mph - N/A   Unknown
7:00 AM 37.4 °F 33.8 °F 26.6 °F 65% 30.36 in 6.2 mi North 4.6 mph - N/A   Unknown
7:30 AM 39.2 °F - 26.6 °F 61% 30.36 in 6.2 mi NNW 2.3 mph - N/A   Unknown
8:00 AM 42.8 °F - 30.2 °F 61% 30.36 in 6.2 mi Calm Calm - N/A   Unknown
8:30 AM 49 °F - 33 °F 43% 30.35 in - NW 1.2 mph - -  
8:30 AM 48.2 °F - 33.8 °F 58% 30.36 in 6.2 mi NW 1.2 mph - N/A   Unknown
9:00 AM 54 °F - 35 °F 36% 30.35 in - East 5.8 mph - -   Clear
9:00 AM 53.6 °F - 35.6 °F 51% 30.36 in 6.2 mi ENE 5.8 mph - N/A   Unknown
9:30 AM 57 °F - 36 °F 33% 30.34 in - East 13.8 mph - -  
9:30 AM 57.2 °F - 35.6 °F 44% 30.36 in 6.2 mi East 13.8 mph - N/A   Unknown
10:00 AM 59.0 °F - 35.6 °F 42% 30.33 in 6.2 mi ENE 15.0 mph - N/A   Unknown
10:30 AM 62.6 °F - 33.8 °F 34% 30.33 in 6.2 mi East 17.3 mph - N/A   Unknown
11:00 AM 64.4 °F - 33.8 °F 32% 30.30 in 6.2 mi East 18.4 mph - N/A   Unknown
11:30 AM 65 °F - 33 °F 19% 30.29 in - East 13.8 mph - -  
11:30 AM 64.4 °F - 33.8 °F 32% 30.30 in 6.2 mi East 13.8 mph - N/A   Unknown
12:00 PM 67 °F - 33 °F 17% 30.27 in - East 16.1 mph - -   Clear
12:00 PM 68.0 °F - 33.8 °F 28% 30.27 in 6.2 mi East 16.1 mph - N/A   Unknown
12:30 PM 67 °F - 33 °F 18% 30.26 in - East 15.0 mph - -  
12:30 PM 68.0 °F - 33.8 °F 28% 30.27 in 6.2 mi East 15.0 mph - N/A   Unknown
1:00 PM 68.0 °F - 33.8 °F 28% 30.24 in 6.2 mi East 11.5 mph - N/A   Unknown
1:30 PM 68.0 °F - 32.0 °F 26% 30.24 in 6.2 mi ENE 9.2 mph - N/A   Unknown
2:00 PM 68.0 °F - 32.0 °F 26% 30.21 in 6.2 mi ESE 12.7 mph - N/A   Unknown
2:30 PM 70 °F - 32 °F 14% 30.20 in - East 12.7 mph - -  
2:30 PM 69.8 °F - 32.0 °F 25% 30.21 in 6.2 mi East 12.7 mph - N/A   Unknown
3:00 PM 71 °F - 32 °F 14% 30.20 in - NNE 9.2 mph - -   Clear
3:00 PM 69.8 °F - 32.0 °F 25% 30.21 in 6.2 mi NNE 9.2 mph - N/A   Unknown
3:30 PM 70 °F - 32 °F 14% 30.18 in - East 13.8 mph - -  
3:30 PM 69.8 °F - 32.0 °F 25% 30.18 in 6.2 mi East 13.8 mph - N/A   Unknown
4:00 PM 71.6 °F - 30.2 °F 22% 30.18 in 6.2 mi ESE 10.4 mph - N/A   Unknown
4:30 PM 69.8 °F - 30.2 °F 23% 30.18 in 6.2 mi East 9.2 mph - N/A   Unknown
5:00 PM 69.8 °F - 32.0 °F 25% 30.18 in 6.2 mi ESE 10.4 mph - N/A   Unknown
5:30 PM 69.8 °F - 30.2 °F 23% 30.18 in 6.2 mi East 11.5 mph - N/A   Unknown
6:00 PM 68 °F - 31 °F 14% 30.18 in - ESE 9.2 mph - -   Clear
6:00 PM 68.0 °F - 30.2 °F 24% 30.18 in 6.2 mi ESE 9.2 mph - N/A   Unknown
6:30 PM 65 °F - 30 °F 16% 30.19 in - ESE 6.9 mph - -  
6:30 PM 66.2 °F - 30.2 °F 26% 30.21 in 6.2 mi ESE 6.9 mph - N/A   Unknown
7:00 PM 64.4 °F - 30.2 °F 28% 30.21 in 6.2 mi East 5.8 mph - N/A   Unknown
7:30 PM 60.8 °F - 28.4 °F 29% 30.21 in 6.2 mi ESE 6.9 mph - N/A   Unknown
8:00 PM 57.2 °F - 28.4 °F 33% 30.24 in 6.2 mi SE 6.9 mph - N/A   Unknown
8:30 PM 57 °F - 29 °F 22% 30.23 in - SE 5.8 mph - -  
8:30 PM 57.2 °F - 28.4 °F 33% 30.24 in 6.2 mi SE 5.8 mph - N/A   Unknown
9:00 PM 54 °F - 27 °F 23% 30.24 in - SE 3.5 mph - -   Clear
9:00 PM 53.6 °F - 26.6 °F 35% 30.24 in 6.2 mi SE 3.5 mph - N/A   Unknown
9:30 PM 52 °F - 27 °F 25% 30.24 in - SE 2.3 mph - -  
9:30 PM 51.8 °F - 26.6 °F 38% 30.24 in 6.2 mi SE 2.3 mph - N/A   Unknown
10:00 PM 51.8 °F - 28.4 °F 41% 30.24 in 6.2 mi Calm Calm - N/A   Unknown
10:30 PM 50.0 °F - 28.4 °F 43% 30.24 in 6.2 mi Calm Calm - N/A   Unknown
11:00 PM 50.0 °F - 28.4 °F 43% 30.24 in 6.2 mi WNW 4.6 mph - N/A   Unknown
11:30 PM 48 °F - 27 °F 30% 30.24 in - South 1.2 mph - -  
11:30 PM 48.2 °F - 26.6 °F 43% 30.24 in 6.2 mi South 1.2 mph - N/A   Unknown